QPF
0.00 0.01 0.01 0.01 0.01 0.02 0.02 0.02 0.03 0.03 0.02 0.02 0.03 0.03 0.03 0.02 0.02 0.05 0.07 0.09 0.22 0.20 0.02 0.00 0.00 0.00 0.00 0.00 0.00 0.00 0.00 0.00 0.00 0.00 0.00 0.00 0.00 0.00 0.00 0.00 0.00 0.00 0.01 0.01 0.02 0.02 0.00 0.00 0.01 0.00 0.01 0.00 0.00 0.00
0.00 0.01 0.03 0.03 0.01 0.01 0.01 0.01 0.01 0.03 0.03 0.03 0.03 0.03 0.04 0.03 0.03 0.07 0.08 0.05 0.03 0.10 0.08 0.01 0.00 0.00 0.00 0.00 0.00 0.00 0.00 0.00 0.00 0.00 0.00 0.00 0.00 0.00 0.00 0.00 0.00 0.00 0.00 0.00 0.00 0.00 0.00 0.00 0.00 0.01 0.00 0.00 0.00 0.00
0.02 0.04 0.04 0.03 0.01 0.02 0.01 0.01 0.02 0.04 0.05 0.05 0.05 0.03 0.03 0.02 0.04 0.14 0.10 0.01 0.04 0.06 0.09 0.06 0.02 0.00 0.00 0.00 0.00 0.00 0.00 0.00 0.00 0.00 0.00 0.00 0.00 0.00 0.00 0.00 0.00 0.00 0.01 0.00 0.01 0.00 0.00 0.00 0.00 0.00 0.00 0.00 0.00 0.00
0.04 0.02 0.00 0.01 0.01 0.01 0.01 0.01 0.01 0.03 0.06 0.07 0.06 0.06 0.02 0.02 0.05 0.17 0.09 0.00 0.01 0.02 0.12 0.05 0.02 0.04 0.02 0.00 0.00 0.00 0.00 0.00 0.00 0.00 0.00 0.00 0.00 0.00 0.00 0.00 0.00 0.00 0.00 0.01 0.01 0.00 0.00 0.00 0.00 0.00 0.00 0.00 0.00 0.00
0.02 0.01 0.01 0.01 0.01 0.00 0.01 0.02 0.02 0.02 0.04 0.07 0.09 0.05 0.02 0.03 0.13 0.13 0.02 0.00 0.00 0.06 0.15 0.05 0.02 0.04 0.06 0.04 0.01 0.01 0.00 0.01 0.02 0.01 0.00 0.00 0.00 0.00 0.01 0.01 0.00 0.00 0.01 0.01 0.00 0.00 0.00 0.00 0.00 0.00 0.00 0.00 0.00 0.00
0.03 0.03 0.00 0.00 0.01 0.01 0.00 0.01 0.02 0.03 0.06 0.08 0.07 0.03 0.05 0.08 0.14 0.05 0.08 0.04 0.03 0.22 0.38 0.10 0.03 0.02 0.04 0.03 0.03 0.04 0.04 0.05 0.02 0.01 0.00 0.00 0.00 0.01 0.01 0.00 0.00 0.01 0.01 0.01 0.01 0.00 0.00 0.00 0.00 0.00 0.00 0.00 0.00 0.00
0.02 0.01 0.00 0.01 0.02 0.03 0.02 0.01 0.02 0.03 0.05 0.06 0.04 0.07 0.06 0.09 0.13 0.06 0.04 0.02 0.14 0.37 0.46 0.09 0.02 0.01 0.01 0.01 0.02 0.02 0.02 0.03 0.03 0.02 0.01 0.01 0.02 0.02 0.01 0.04 0.00 0.00 0.01 0.02 0.01 0.00 0.00 0.00 0.00 0.00 0.01 0.00 0.00 0.00
0.06 0.03 0.01 0.03 0.05 0.05 0.04 0.03 0.03 0.04 0.04 0.03 0.06 0.05 0.06 0.13 0.13 0.04 0.02 0.03 0.12 0.31 0.21 0.02 0.06 0.01 0.00 0.01 0.01 0.01 0.01 0.01 0.02 0.01 0.01 0.01 0.03 0.05 0.04 0.03 0.02 0.00 0.00 0.01 0.01 0.01 0.00 0.00 0.00 0.02 0.03 0.03 0.01 0.00
0.05 0.03 0.02 0.04 0.08 0.09 0.04 0.03 0.06 0.08 0.07 0.07 0.09 0.14 0.27 0.34 0.21 0.14 0.14 0.02 0.04 0.04 0.01 0.00 0.01 0.01 0.00 0.00 0.00 0.00 0.00 0.00 0.00 0.00 0.00 0.00 0.00 0.04 0.04 0.01 0.04 0.01 0.00 0.00 0.01 0.02 0.03 0.03 0.02 0.01 0.03 0.02 0.00 0.00
0.03 0.01 0.00 0.02 0.04 0.07 0.09 0.04 0.02 0.06 0.08 0.10 0.15 0.25 0.37 0.31 0.23 0.15 0.07 0.01 0.00 0.00 0.00 0.00 0.00 0.00 0.00 0.00 0.00 0.00 0.00 0.00 0.00 0.00 0.00 0.00 0.01 0.02 0.01 0.04 0.09 0.10 0.07 0.02 0.02 0.02 0.02 0.02 0.02 0.02 0.02 0.01 0.01 0.00
0.01 0.00 0.00 0.00 0.00 0.00 0.01 0.03 0.03 0.02 0.01 0.01 0.04 0.18 0.25 0.10 0.02 0.00 0.00 0.00 0.00 0.00 0.00 0.00 0.00 0.00 0.00 0.00 0.00 0.00 0.00 0.00 0.00 0.00 0.01 0.03 0.02 0.02 0.01 0.06 0.11 0.13 0.13 0.10 0.02 0.01 0.01 0.01 0.01 0.00 0.00 0.00 0.00 0.00
0.00 0.00 0.00 0.00 0.00 0.00 0.00 0.00 0.00 0.00 0.00 0.00 0.01 0.00 0.00 0.00 0.00 0.00 0.00 0.00 0.00 0.00 0.00 0.00 0.00 0.00 0.00 0.00 0.00 0.00 0.02 0.02 0.01 0.01 0.04 0.05 0.03 0.00 0.00 0.00 0.01 0.08 0.15 0.10 0.04 0.01 0.00 0.00 0.00 0.00 0.00 0.00 0.00 0.00
0.00 0.00 0.00 0.00 0.00 0.00 0.00 0.00 0.00 0.00 0.00 0.00 0.00 0.00 0.00 0.00 0.00 0.00 0.00 0.00 0.01 0.02 0.00 0.00 0.00 0.00 0.00 0.00 0.00 0.00 0.05 0.06 0.15 0.08 0.04 0.02 0.01 0.00 0.00 0.01 0.01 0.01 0.03 0.06 0.05 0.02 0.01 0.00 0.00 0.00 0.01 0.01 0.01 0.01
0.00 0.00 0.00 0.00 0.00 0.00 0.00 0.00 0.00 0.00 0.00 0.00 0.00 0.00 0.00 0.00 0.01 0.01 0.01 0.01 0.02 0.02 0.01 0.00 0.00 0.00 0.00 0.00 0.00 0.02 0.03 0.06 0.11 0.03 0.03 0.02 0.02 0.01 0.01 0.01 0.01 0.01 0.01 0.01 0.02 0.01 0.01 0.01 0.02 0.03 0.05 0.07 0.07 0.09
0.00 0.00 0.00 0.00 0.00 0.00 0.00 0.00 0.00 0.00 0.00 0.00 0.00 0.00 0.01 0.02 0.01 0.01 0.02 0.01 0.02 0.02 0.01 0.00 0.00 0.00 0.00 0.00 0.00 0.02 0.01 0.00 0.00 0.01 0.03 0.03 0.02 0.01 0.01 0.02 0.02 0.02 0.02 0.03 0.03 0.02 0.03 0.04 0.03 0.06 0.08 0.09 0.07 0.08
0.00 0.00 0.00 0.00 0.00 0.00 0.00 0.00 0.00 0.00 0.00 0.00 0.00 0.01 0.00 0.00 0.00 0.00 0.00 0.00 0.00 0.01 0.01 0.03 0.02 0.02 0.01 0.00 0.00 0.00 0.00 0.01 0.02 0.02 0.04 0.04 0.04 0.04 0.03 0.04 0.04 0.04 0.04 0.04 0.05 0.04 0.04 0.05 0.05 0.07 0.08 0.08 0.09 0.07
0.00 0.00 0.00 0.00 0.00 0.00 0.00 0.00 0.00 0.00 0.00 0.00 0.00 0.01 0.00 0.00 0.01 0.01 0.01 0.01 0.01 0.01 0.00 0.02 0.00 0.01 0.03 0.02 0.02 0.02 0.02 0.03 0.02 0.02 0.03 0.04 0.04 0.05 0.07 0.06 0.06 0.06 0.06 0.07 0.07 0.07 0.08 0.09 0.08 0.06 0.07 0.09 0.07 0.07
0.00 0.00 0.00 0.00 0.00 0.00 0.00 0.00 0.00 0.00 0.00 0.01 0.01 0.01 0.00 0.01 0.01 0.01 0.01 0.00 0.00 0.00 0.00 0.00 0.00 0.00 0.01 0.01 0.01 0.02 0.02 0.02 0.01 0.01 0.02 0.04 0.05 0.04 0.03 0.05 0.06 0.06 0.06 0.07 0.07 0.07 0.07 0.07 0.06 0.07 0.06 0.07 0.05 0.04
0.00 0.00 0.00 0.00 0.00 0.00 0.00 0.00 0.00 0.00 0.01 0.01 0.01 0.01 0.00 0.01 0.01 0.01 0.00 0.00 0.00 0.00 0.00 0.00 0.00 0.00 0.01 0.01 0.01 0.01 0.00 0.00 0.01 0.01 0.02 0.03 0.03 0.04 0.05 0.05 0.06 0.07 0.07 0.06 0.06 0.06 0.06 0.06 0.05 0.05 0.04 0.03 0.02 0.02
0.00 0.00 0.00 0.00 0.00 0.00 0.00 0.00 0.00 0.00 0.01 0.02 0.01 0.00 0.00 0.01 0.00 0.00 0.00 0.00 0.00 0.00 0.00 0.00 0.01 0.01 0.01 0.01 0.01 0.01 0.01 0.01 0.00 0.01 0.01 0.02 0.04 0.04 0.05 0.06 0.06 0.06 0.05 0.05 0.04 0.04 0.03 0.02 0.02 0.02 0.01 0.00 0.00 0.00
0.00 0.00 0.00 0.00 0.00 0.00 0.00 0.00 0.00 0.00 0.01 0.03 0.01 0.00 0.00 0.00 0.00 0.00 0.00 0.00 0.00 0.00 0.01 0.01 0.01 0.02 0.02 0.02 0.02 0.01 0.01 0.01 0.01 0.00 0.01 0.01 0.02 0.02 0.03 0.03 0.03 0.03 0.02 0.02 0.02 0.02 0.01 0.01 0.01 0.00 0.00 0.00 0.00 0.00
0.00 0.00 0.00 0.00 0.00 0.00 0.00 0.00 0.00 0.00 0.00 0.00 0.00 0.00 0.00 0.00 0.00 0.00 0.00 0.00 0.01 0.01 0.01 0.01 0.01 0.01 0.01 0.01 0.01 0.01 0.01 0.01 0.01 0.01 0.01 0.01 0.02 0.02 0.02 0.02 0.02 0.02 0.02 0.01 0.01 0.00 0.00 0.00 0.00 0.00 0.00 0.00 0.00 0.00
0.00 0.00 0.00 0.00 0.00 0.00 0.00 0.00 0.00 0.01 0.00 0.00 0.00 0.00 0.00 0.00 0.00 0.00 0.00 0.01 0.02 0.02 0.01 0.00 0.01 0.00 0.01 0.01 0.01 0.01 0.01 0.00 0.01 0.01 0.01 0.02 0.02 0.02 0.02 0.02 0.01 0.01 0.00 0.00 0.00 0.00 0.00 0.00 0.00 0.00 0.00 0.00 0.00 0.00
0.00 0.00 0.00 0.00 0.00 0.00 0.00 0.00 0.00 0.00 0.00 0.00 0.00 0.00 0.00 0.00 0.00 0.00 0.00 0.01 0.03 0.02 0.00 0.00 0.00 0.00 0.00 0.00 0.00 0.01 0.01 0.01 0.01 0.01 0.02 0.01 0.01 0.01 0.01 0.00 0.00 0.00 0.00 0.00 0.00 0.00 0.00 0.00 0.00 0.00 0.00 0.00 0.00 0.00
0.00 0.00 0.00 0.00 0.00 0.00 0.00 0.00 0.00 0.00 0.00 0.00 0.00 0.00 0.00 0.00 0.00 0.00 0.00 0.01 0.01 0.01 0.01 0.00 0.00 0.00 0.00 0.00 0.01 0.01 0.01 0.00 0.01 0.01 0.01 0.00 0.00 0.00 0.00 0.00 0.00 0.00 0.00 0.00 0.00 0.00 0.00 0.00 0.00 0.00 0.00 0.00 0.00 0.00
0.00 0.00 0.00 0.00 0.00 0.00 0.00 0.00 0.00 0.00 0.00 0.00 0.00 0.00 0.00 0.00 0.00 0.00 0.00 0.00 0.00 0.00 0.00 0.00 0.00 0.00 0.00 0.00 0.00 0.00 0.00 0.00 0.00 0.00 0.00 0.00 0.00 0.00 0.00 0.00 0.00 0.00 0.00 0.00 0.00 0.00 0.00 0.00 0.00 0.00 0.00 0.00 0.00 0.00
0.00 0.00 0.00 0.00 0.00 0.00 0.00 0.00 0.00 0.00 0.00 0.00 0.00 0.00 0.00 0.00 0.00 0.00 0.01 0.00 0.00 0.01 0.00 0.00 0.00 0.00 0.00 0.00 0.00 0.00 0.00 0.00 0.00 0.00 0.00 0.00 0.00 0.00 0.00 0.00 0.00 0.00 0.00 0.00 0.00 0.00 0.00 0.00 0.00 0.00 0.00 0.00 0.00 0.00
0.00 0.00 0.00 0.00 0.00 0.00 0.00 0.00 0.00 0.00 0.00 0.00 0.00 0.00 0.00 0.00 0.00 0.01 0.00 0.00 0.00 0.00 0.00 0.00 0.00 0.00 0.00 0.00 0.00 0.00 0.00 0.00 0.00 0.00 0.00 0.00 0.00 0.00 0.00 0.00 0.00 0.00 0.00 0.00 0.00 0.00 0.00 0.00 0.00 0.00 0.00 0.00 0.00 0.00
0.00 0.00 0.00 0.00 0.00 0.00 0.00 0.00 0.00 0.00 0.00 0.00 0.00 0.00 0.00 0.01 0.01 0.00 0.00 0.00 0.00 0.00 0.00 0.00 0.00 0.00 0.00 0.00 0.00 0.00 0.00 0.00 0.00 0.00 0.00 0.00 0.00 0.00 0.00 0.00 0.00 0.00 0.00 0.00 0.00 0.00 0.00 0.00 0.00 0.00 0.00 0.00 0.00 0.00
0.00 0.00 0.00 0.00 0.00 0.00 0.00 0.00 0.00 0.00 0.00 0.00 0.00 0.00 0.00 0.01 0.02 0.01 0.00 0.00 0.00 0.00 0.00 0.00 0.00 0.00 0.00 0.00 0.00 0.00 0.00 0.00 0.00 0.00 0.00 0.00 0.00 0.00 0.00 0.00 0.00 0.00 0.00 0.00 0.00 0.00 0.00 0.00 0.00 0.00 0.00 0.00 0.00 0.00
0.00 0.00 0.00 0.00 0.00 0.00 0.00 0.00 0.00 0.00 0.00 0.00 0.00 0.00 0.00 0.00 0.01 0.01 0.01 0.01 0.00 0.00 0.00 0.00 0.00 0.00 0.00 0.00 0.00 0.00 0.00 0.00 0.00 0.00 0.00 0.00 0.00 0.00 0.00 0.00 0.00 0.00 0.00 0.00 0.00 0.00 0.00 0.00 0.00 0.00 0.00 0.00 0.00 0.00
0.00 0.00 0.00 0.00 0.00 0.00 0.00 0.00 0.00 0.00 0.00 0.00 0.00 0.00 0.00 0.00 0.00 0.00 0.00 0.00 0.00 0.00 0.00 0.00 0.00 0.00 0.00 0.00 0.00 0.00 0.00 0.00 0.00 0.00 0.00 0.00 0.00 0.00 0.00 0.00 0.00 0.00 0.00 0.00 0.00 0.00 0.00 0.00 0.00 0.00 0.00 0.00 0.00 0.00
0.00 0.00 0.00 0.00 0.00 0.00 0.00 0.00 0.00 0.00 0.00 0.00 0.00 0.00 0.00 0.00 0.00 0.00 0.00 0.00 0.00 0.00 0.00 0.00 0.00 0.00 0.00 0.00 0.00 0.00 0.00 0.00 0.00 0.00 0.00 0.00 0.00 0.00 0.00 0.00 0.00 0.00 0.00 0.00 0.00 0.00 0.00 0.00 0.00 0.00 0.00 0.00 0.00 0.00
MSLP
997.84 997.02 996.14 995.20 994.41 993.76 993.20 992.98 992.93 992.97 993.19 993.79 994.56 995.59 996.69 997.95 999.23 1000.74 1001.56 1002.49 1003.14 1003.29 1002.90 1002.28 1002.41 1002.50 1003.50 1004.14 1004.87 1005.41 1006.25 1006.53 1007.68 1008.41 1008.76 1008.39 1007.84 1006.96 1006.26 1005.16 1004.43 1004.55 1004.73 1004.94 1004.67 1004.22 1002.54 1000.23 999.71 999.58 999.53 999.26 999.16 999.01
996.74 995.69 994.51 993.36 992.64 991.82 991.41 991.18 991.07 991.10 991.41 991.98 992.83 993.93 995.08 996.55 997.99 1000.00 1001.15 1002.02 1002.69 1003.29 1002.81 1002.56 1001.62 1001.26 1001.00 1001.39 1002.45 1003.85 1003.79 1004.57 1005.62 1006.65 1007.40 1007.52 1007.69 1006.94 1006.16 1005.54 1004.28 1004.51 1003.64 1003.42 1002.88 1002.32 1001.00 1000.18 999.54 999.42 999.21 1000.01 999.33 998.88
995.73 994.64 993.52 992.45 991.40 990.50 989.74 989.24 989.08 989.14 989.59 990.42 991.42 992.60 993.73 995.44 997.03 998.86 1000.19 1001.40 1002.43 1002.92 1002.82 1002.75 1001.57 1000.68 1000.96 1001.17 1001.45 1002.68 1003.51 1003.37 1004.30 1004.52 1005.76 1006.62 1006.83 1006.36 1006.26 1005.65 1004.78 1003.69 1002.84 1002.94 1002.88 1001.59 1000.91 999.90 999.51 999.38 999.20 999.17 999.39 998.74
994.99 993.94 992.79 991.70 990.65 989.56 988.46 987.58 986.89 986.42 987.22 988.66 989.85 991.48 993.08 994.89 996.46 998.42 999.40 1000.49 1001.73 1002.24 1002.34 1001.99 1001.17 1000.67 1000.43 1000.87 1001.32 1001.63 1002.10 1002.71 1003.36 1004.27 1005.26 1006.02 1006.37 1005.73 1005.96 1005.33 1004.98 1004.02 1003.31 1002.89 1002.33 1001.84 1000.71 999.84 999.38 998.91 998.75 998.67 998.62 998.81
994.45 993.50 992.57 991.48 990.27 989.19 988.18 986.97 985.45 983.33 984.93 987.60 989.60 991.25 993.18 994.94 996.73 998.17 999.37 1000.12 1000.23 1000.95 1001.49 1001.68 1000.82 1001.08 1000.99 1000.73 1001.08 1001.53 1002.15 1002.83 1003.56 1004.59 1005.37 1005.66 1005.51 1005.50 1005.58 1005.35 1005.15 1004.76 1004.86 1004.11 1002.38 1000.88 1000.15 999.37 998.58 998.38 998.55 998.91 998.67 998.75
994.12 993.54 992.71 991.55 990.46 989.67 988.87 988.02 987.23 986.73 987.24 988.85 990.50 992.26 993.82 995.44 996.49 997.89 999.75 1000.79 1000.19 1000.74 1001.78 1001.94 1001.31 1001.34 1001.39 1000.94 1001.38 1001.86 1002.20 1002.86 1003.39 1004.10 1004.95 1004.92 1004.66 1005.04 1005.98 1005.55 1005.00 1004.55 1004.78 1004.95 1003.64 1002.23 1000.48 999.20 998.76 998.43 998.69 999.03 999.41 999.56
994.66 994.01 993.20 992.31 991.45 990.73 990.00 989.51 989.35 989.40 989.80 990.81 992.04 993.30 994.61 995.69 996.61 997.97 998.70 998.58 1000.09 1001.02 1002.10 1001.25 1001.15 1001.25 1001.28 1001.54 1002.20 1002.52 1002.62 1003.21 1003.79 1004.32 1004.62 1004.73 1004.88 1005.15 1006.07 1006.38 1005.79 1005.40 1004.97 1004.36 1003.77 1003.16 1000.68 999.53 999.20 999.09 999.57 1000.16 1000.64 1001.24
995.54 994.99 994.28 993.43 992.76 992.23 991.69 991.31 991.25 991.48 991.95 992.72 993.63 994.69 995.89 996.92 998.00 997.91 998.31 998.64 1000.01 1001.33 1001.72 1001.22 1001.43 1001.62 1001.38 1002.14 1002.96 1003.04 1003.57 1003.91 1004.29 1004.49 1004.64 1004.67 1005.42 1005.73 1006.80 1007.29 1006.96 1006.45 1005.52 1004.75 1004.23 1004.10 1002.77 1001.34 1000.46 1000.73 1001.08 1001.56 1002.13 1002.95
996.48 995.95 995.39 994.92 994.35 993.76 993.48 993.29 993.15 993.38 993.82 994.47 995.32 996.23 997.40 997.96 997.55 998.16 998.59 998.94 999.67 1000.52 1000.44 1000.87 1001.47 1001.82 1001.74 1002.54 1002.88 1003.82 1004.11 1004.83 1004.91 1005.01 1004.76 1004.95 1006.08 1007.13 1008.19 1008.19 1008.26 1008.18 1007.76 1006.80 1005.42 1004.86 1004.31 1003.08 1003.19 1003.12 1003.43 1004.22 1004.86 1005.85
997.39 996.94 996.46 995.94 995.58 995.40 994.93 994.79 994.92 995.29 995.66 995.80 996.35 997.24 998.08 998.14 998.36 998.21 999.35 999.91 999.86 1000.00 1000.23 1001.53 1001.81 1002.18 1002.45 1002.95 1003.80 1004.28 1004.57 1005.04 1005.34 1005.15 1005.06 1006.02 1007.60 1009.12 1009.60 1009.56 1009.67 1009.47 1008.89 1007.49 1007.09 1006.47 1006.07 1005.41 1005.56 1005.72 1005.95 1006.50 1007.20 1007.97
998.19 997.73 997.16 996.77 996.43 996.17 996.06 995.79 995.73 996.14 996.65 996.66 997.05 997.90 998.37 998.21 998.58 998.85 999.87 1000.41 1000.71 1001.29 1001.86 1002.47 1002.47 1002.66 1002.97 1003.16 1003.79 1004.30 1004.79 1005.15 1005.58 1005.49 1005.91 1007.12 1009.20 1010.33 1010.50 1010.44 1010.60 1010.27 1009.55 1008.54 1008.91 1008.76 1008.32 1007.65 1007.93 1008.09 1008.34 1008.83 1009.24 1009.64
999.04 998.40 997.83 997.40 997.10 996.86 996.68 996.74 996.92 996.93 996.80 996.77 996.89 998.00 998.60 999.40 999.80 1000.51 1001.92 1001.87 1002.34 1003.30 1003.34 1003.18 1003.38 1003.38 1003.68 1003.62 1004.06 1004.78 1005.13 1005.65 1005.77 1005.95 1007.12 1009.24 1010.99 1011.47 1011.52 1011.48 1011.39 1011.12 1010.44 1010.15 1009.53 1009.33 1009.03 1009.14 1009.72 1009.92 1010.28 1010.85 1011.35 1011.81
999.70 999.15 998.55 998.07 997.72 997.44 997.14 996.99 996.90 996.90 996.78 997.17 997.94 999.46 1000.38 1002.13 1003.04 1003.82 1004.28 1004.26 1004.49 1004.70 1004.65 1004.13 1004.19 1004.26 1004.43 1004.41 1004.82 1005.10 1005.45 1005.80 1006.35 1008.05 1010.18 1011.81 1012.33 1012.37 1012.45 1012.49 1012.55 1012.38 1011.95 1011.47 1011.14 1010.68 1010.69 1011.29 1011.54 1011.55 1011.86 1012.45 1012.77 1013.22
1000.17 999.75 999.22 998.71 998.42 998.12 997.68 997.47 997.30 997.23 997.97 1000.13 1001.78 1004.07 1005.21 1006.69 1007.19 1007.28 1006.93 1006.56 1006.35 1006.02 1005.59 1005.26 1005.04 1004.99 1005.14 1005.23 1005.58 1006.04 1007.13 1007.62 1008.98 1010.70 1012.27 1012.94 1013.11 1013.23 1013.30 1013.52 1013.61 1013.46 1013.31 1012.91 1012.53 1012.49 1012.62 1012.39 1012.90 1013.20 1013.35 1013.75 1013.93 1014.47
1000.32 1000.15 999.72 999.33 998.84 998.51 998.34 998.09 998.03 998.38 1001.29 1003.83 1005.31 1007.96 1009.14 1009.55 1009.27 1008.85 1008.06 1007.49 1007.43 1006.91 1006.24 1005.78 1005.45 1005.30 1006.01 1006.64 1007.77 1008.38 1009.60 1011.31 1012.40 1013.55 1014.05 1014.38 1014.43 1014.51 1014.74 1014.81 1014.68 1014.56 1014.41 1014.16 1014.12 1014.28 1013.94 1014.04 1014.34 1014.82 1015.33 1015.59 1015.86 1016.26
1000.37 1000.26 1000.46 1000.17 999.74 999.33 998.98 998.94 999.54 1001.05 1004.74 1007.16 1009.41 1010.62 1011.07 1010.97 1010.68 1009.99 1009.38 1008.74 1008.09 1007.49 1006.91 1006.47 1006.58 1007.19 1008.75 1009.58 1010.48 1011.85 1012.71 1014.21 1015.32 1015.78 1015.97 1015.88 1015.85 1015.92 1015.91 1015.72 1015.55 1015.42 1015.54 1015.67 1015.68 1015.85 1015.66 1015.71 1015.96 1016.52 1016.94 1017.45 1017.87 1018.23
1000.71 1001.42 1001.07 1000.60 1000.23 999.89 999.56 1000.49 1002.42 1005.41 1007.95 1009.95 1011.99 1012.31 1012.60 1012.48 1012.30 1011.63 1010.71 1009.96 1009.04 1008.20 1008.45 1008.56 1009.62 1010.91 1011.19 1012.28 1013.88 1014.92 1016.27 1016.98 1017.33 1017.50 1017.44 1017.40 1017.42 1017.39 1017.23 1017.14 1017.04 1016.99 1016.83 1016.95 1017.30 1017.42 1017.28 1017.58 1017.64 1017.80 1018.45 1019.36 1019.52 1020.02
1001.74 1001.58 1001.04 1000.66 1000.43 1000.54 1001.32 1002.70 1005.51 1008.34 1010.66 1012.01 1012.69 1013.24 1013.27 1013.37 1013.02 1012.35 1011.71 1010.71 1009.81 1009.82 1010.60 1012.11 1012.93 1013.95 1015.25 1016.15 1017.15 1017.59 1018.10 1018.53 1018.76 1018.85 1018.79 1018.74 1018.65 1018.61 1018.54 1018.48 1018.31 1018.21 1018.44 1018.72 1018.95 1018.90 1018.94 1018.99 1019.27 1019.70 1020.20 1020.73 1020.94 1021.26
1002.03 1001.72 1001.12 1000.81 1000.78 1001.71 1003.58 1005.67 1006.96 1010.26 1012.28 1012.88 1013.44 1013.60 1013.65 1013.87 1013.73 1013.28 1012.59 1011.90 1011.63 1011.62 1012.63 1014.65 1016.37 1017.63 1018.49 1018.72 1018.87 1018.85 1019.06 1019.31 1019.72 1019.98 1020.08 1020.15 1019.87 1019.68 1019.71 1019.72 1019.80 1019.93 1020.05 1020.34 1020.42 1020.63 1020.83 1020.98 1021.02 1021.16 1021.57 1021.86 1022.10 1022.90
1001.66 1001.53 1001.21 1001.03 1001.02 1002.64 1005.16 1007.30 1008.15 1010.32 1012.37 1013.77 1013.99 1014.14 1014.30 1014.72 1014.47 1013.98 1013.59 1013.24 1013.09 1013.85 1016.09 1018.08 1019.57 1020.07 1020.10 1020.06 1019.86 1019.70 1019.91 1020.16 1020.21 1020.45 1020.93 1021.22 1021.20 1021.00 1021.00 1021.06 1021.19 1021.35 1021.51 1021.73 1021.96 1022.03 1022.26 1022.43 1022.67 1023.01 1023.28 1023.46 1023.89 1024.88
1001.94 1001.99 1001.78 1001.55 1002.31 1003.50 1006.07 1007.96 1009.63 1011.07 1012.41 1013.10 1013.63 1014.11 1014.88 1015.03 1014.99 1014.92 1014.73 1014.78 1015.26 1017.98 1019.90 1020.90 1021.07 1021.11 1021.04 1020.83 1020.67 1020.61 1020.73 1020.73 1021.00 1021.26 1021.83 1022.18 1022.27 1022.10 1022.15 1022.34 1022.46 1022.59 1022.80 1023.13 1023.31 1023.66 1023.79 1024.17 1024.60 1024.90 1025.03 1025.54 1025.91 1026.42
1002.81 1002.41 1002.72 1002.88 1004.17 1005.64 1007.41 1008.61 1009.74 1010.95 1011.81 1013.02 1013.65 1014.24 1015.41 1016.30 1016.80 1016.93 1017.15 1017.53 1019.76 1021.31 1021.59 1021.98 1022.00 1021.95 1021.92 1021.91 1021.95 1021.85 1021.95 1021.98 1022.26 1022.53 1022.81 1023.00 1023.20 1023.28 1023.45 1023.65 1023.72 1023.98 1024.29 1024.67 1024.96 1025.32 1025.63 1025.93 1026.13 1026.36 1026.62 1027.16 1027.45 1027.94
1003.08 1003.24 1004.24 1005.03 1006.34 1007.94 1009.87 1009.60 1010.38 1011.44 1012.55 1013.75 1014.48 1015.57 1016.68 1017.58 1018.18 1018.44 1019.89 1021.25 1022.32 1022.75 1022.77 1022.83 1022.91 1022.92 1022.88 1022.99 1022.95 1023.08 1023.19 1023.24 1023.51 1023.82 1024.06 1024.23 1024.40 1024.51 1024.67 1024.87 1025.10 1025.35 1025.73 1026.20 1026.46 1026.76 1027.07 1027.31 1027.56 1027.93 1028.42 1028.92 1029.43 1030.05
1004.11 1005.77 1006.87 1007.93 1008.76 1010.59 1010.82 1011.45 1011.95 1013.03 1013.89 1015.01 1016.17 1017.28 1017.87 1018.75 1019.42 1020.66 1022.26 1023.07 1023.42 1023.56 1023.64 1023.76 1023.76 1023.82 1023.92 1024.03 1024.20 1024.39 1024.46 1024.45 1024.66 1024.91 1025.14 1025.33 1025.63 1026.03 1026.21 1026.39 1026.59 1026.79 1027.02 1027.43 1027.84 1028.25 1028.55 1028.81 1029.07 1029.48 1029.96 1030.54 1031.09 1031.59
1006.55 1009.53 1009.91 1010.80 1011.14 1012.13 1013.24 1014.19 1014.82 1015.31 1016.95 1017.25 1018.01 1018.75 1019.21 1019.59 1021.26 1022.67 1023.64 1024.24 1024.42 1024.46 1024.48 1024.41 1024.54 1024.78 1025.01 1025.26 1025.44 1025.51 1025.49 1025.42 1025.60 1025.91 1026.28 1026.40 1026.72 1027.05 1027.42 1027.71 1027.96 1028.19 1028.28 1028.66 1029.39 1029.74 1030.13 1030.24 1030.54 1030.93 1031.35 1031.78 1032.38 1032.79
1010.15 1011.91 1012.11 1012.91 1013.48 1014.11 1015.34 1016.72 1017.25 1017.91 1018.37 1019.20 1019.99 1020.45 1020.96 1022.05 1023.53 1024.30 1024.60 1024.86 1025.22 1025.12 1025.25 1025.17 1025.22 1025.50 1025.84 1026.06 1026.28 1026.48 1026.55 1026.47 1026.62 1026.98 1027.55 1027.51 1027.56 1027.87 1028.40 1028.83 1029.09 1029.43 1029.58 1029.73 1030.27 1030.87 1031.22 1031.43 1031.72 1032.04 1032.41 1032.72 1032.99 1033.23
1012.65 1013.76 1013.97 1014.71 1014.91 1015.60 1017.38 1018.29 1018.98 1019.65 1020.59 1021.37 1021.86 1022.50 1023.19 1024.95 1025.42 1025.42 1025.29 1025.39 1025.58 1025.62 1025.53 1025.63 1025.72 1026.11 1026.61 1027.05 1027.35 1027.57 1027.62 1027.59 1027.78 1028.27 1028.57 1028.60 1028.70 1028.83 1029.23 1029.83 1029.93 1030.32 1030.34 1030.53 1030.69 1031.13 1031.58 1032.02 1032.39 1032.72 1033.06 1033.39 1033.73 1033.71
1014.11 1015.12 1016.06 1017.34 1017.61 1018.33 1019.84 1020.93 1021.59 1022.27 1022.48 1022.51 1023.04 1024.71 1025.35 1025.75 1026.30 1026.09 1025.96 1025.98 1025.96 1026.14 1026.40 1026.63 1026.75 1027.13 1027.63 1028.08 1028.32 1028.58 1028.89 1029.01 1029.15 1029.30 1029.51 1029.81 1030.08 1030.17 1030.30 1030.54 1030.64 1030.48 1031.47 1031.71 1031.71 1031.36 1031.42 1031.93 1032.56 1033.14 1033.35 1033.52 1033.70 1033.28
1015.78 1016.88 1017.71 1019.73 1019.98 1020.93 1022.11 1022.98 1023.60 1023.64 1023.56 1023.64 1024.74 1025.60 1026.02 1026.31 1026.61 1026.53 1026.60 1026.56 1026.55 1026.91 1027.40 1027.88 1028.48 1028.68 1029.07 1029.41 1029.66 1029.74 1029.82 1030.29 1030.47 1030.79 1031.09 1031.71 1031.60 1031.56 1031.35 1031.41 1031.62 1031.71 1032.01 1032.11 1031.05 1031.65 1031.40 1031.29 1031.58 1032.43 1032.93 1033.27 1033.29 1033.36
1017.60 1018.03 1019.51 1021.17 1022.39 1023.66 1024.06 1024.23 1024.56 1024.66 1024.33 1024.65 1025.11 1026.26 1026.90 1027.22 1027.10 1026.75 1026.99 1027.18 1027.59 1027.93 1028.35 1028.64 1029.17 1029.59 1030.49 1030.88 1031.26 1031.07 1030.93 1030.90 1031.07 1031.27 1031.68 1032.21 1032.02 1031.94 1031.96 1032.05 1032.20 1032.51 1032.41 1032.54 1031.90 1031.45 1031.45 1032.08 1031.48 1032.52 1033.42 1033.57 1033.90 1034.20
1018.03 1019.26 1021.14 1022.77 1024.20 1024.91 1025.18 1025.20 1025.03 1025.32 1026.05 1026.54 1027.07 1027.80 1028.52 1028.41 1027.85 1027.81 1027.87 1028.08 1028.26 1028.55 1029.07 1029.81 1030.29 1030.56 1031.05 1031.91 1031.92 1031.64 1031.93 1031.41 1031.24 1031.20 1031.27 1031.44 1031.83 1032.19 1032.39 1032.62 1032.62 1032.79 1032.85 1032.94 1032.59 1032.49 1032.65 1032.99 1033.44 1033.73 1033.96 1034.13 1034.38 1034.50
1019.82 1021.20 1022.51 1024.30 1025.28 1025.22 1025.28 1026.06 1026.54 1027.10 1028.11 1028.29 1029.10 1028.99 1029.40 1029.63 1029.46 1028.91 1028.75 1028.97 1029.21 1029.77 1029.94 1030.29 1031.15 1031.32 1031.26 1031.18 1031.15 1031.23 1031.38 1031.59 1031.77 1031.97 1032.18 1032.25 1032.75 1032.75 1032.63 1032.44 1032.59 1032.87 1033.42 1033.23 1033.05 1032.94 1033.03 1033.75 1033.89 1033.96 1034.08 1034.20 1034.31 1034.36
1021.45 1022.18 1023.25 1024.77 1025.75 1026.12 1026.26 1026.57 1027.57 1028.45 1028.84 1029.62 1029.69 1029.82 1030.11 1030.02 1030.00 1029.59 1029.13 1029.35 1029.29 1029.43 1029.89 1030.60 1030.86 1031.13 1031.20 1031.14 1031.13 1031.48 1031.83 1032.08 1032.11 1031.52 1031.89 1032.06 1032.36 1032.47 1032.86 1032.96 1032.95 1032.98 1033.45 1033.37 1033.28 1033.24 1033.41 1033.78 1033.98 1034.07 1034.14 1034.21 1034.26 1034.30
Thickness
5374 5376 5380 5383 5385 5386 5386 5384 5383 5382 5382 5382 5381 5380 5379 5378 5375 5371 5378 5377 5382 5395 5409 5429 5439 5443 5445 5450 5443 5453 5453 5451 5444 5446 5455 5454 5449 5484 5503 5517 5524 5524 5520 5502 5516 5520 5538 5582 5590 5584 5586 5596 5601 5609
5377 5380 5385 5389 5388 5388 5387 5385 5383 5381 5379 5380 5380 5380 5379 5377 5374 5364 5366 5372 5377 5382 5400 5410 5431 5447 5462 5468 5464 5455 5469 5465 5461 5455 5451 5454 5455 5448 5487 5490 5523 5511 5530 5530 5542 5539 5564 5574 5586 5587 5587 5583 5594 5602
5380 5383 5386 5387 5387 5390 5391 5389 5383 5378 5377 5375 5376 5377 5380 5377 5373 5367 5366 5368 5369 5375 5388 5394 5421 5443 5452 5458 5463 5451 5453 5471 5468 5468 5461 5464 5472 5471 5466 5476 5511 5519 5532 5530 5535 5554 5558 5570 5576 5579 5582 5584 5586 5597
5382 5384 5386 5387 5388 5391 5392 5387 5381 5380 5377 5374 5378 5376 5378 5375 5372 5366 5370 5371 5369 5374 5383 5405 5424 5437 5449 5453 5457 5463 5467 5467 5470 5467 5462 5452 5456 5479 5467 5490 5489 5506 5522 5529 5535 5541 5553 5564 5569 5578 5580 5583 5587 5590
5384 5384 5383 5384 5387 5390 5388 5386 5388 5393 5388 5378 5376 5376 5373 5370 5367 5368 5370 5373 5380 5390 5396 5409 5427 5430 5438 5450 5455 5458 5460 5459 5458 5453 5448 5452 5465 5477 5472 5480 5482 5489 5494 5505 5526 5546 5549 5560 5571 5576 5578 5576 5581 5584
5385 5383 5382 5384 5386 5386 5385 5384 5383 5383 5381 5377 5376 5372 5370 5366 5371 5372 5366 5364 5387 5394 5395 5408 5420 5426 5434 5444 5448 5450 5451 5452 5453 5449 5444 5457 5472 5471 5443 5470 5483 5484 5482 5483 5503 5519 5543 5557 5564 5571 5573 5572 5570 5569
5383 5383 5382 5381 5382 5382 5383 5383 5381 5380 5379 5377 5375 5373 5372 5373 5377 5376 5380 5392 5386 5389 5388 5413 5422 5427 5432 5436 5435 5441 5446 5446 5450 5448 5449 5456 5462 5458 5443 5448 5470 5469 5473 5483 5495 5502 5541 5554 5558 5562 5559 5552 5546 5539
5379 5379 5379 5378 5378 5378 5378 5378 5379 5379 5377 5376 5374 5372 5371 5371 5372 5383 5388 5396 5397 5388 5393 5413 5417 5422 5432 5426 5428 5433 5433 5435 5440 5444 5439 5455 5451 5451 5452 5438 5448 5455 5466 5477 5480 5486 5506 5525 5534 5536 5539 5534 5524 5516
5376 5377 5378 5375 5375 5376 5376 5374 5376 5376 5376 5374 5372 5370 5367 5372 5384 5383 5394 5398 5401 5403 5404 5408 5415 5426 5426 5422 5427 5425 5424 5414 5423 5426 5437 5440 5440 5435 5419 5424 5426 5428 5438 5450 5466 5481 5489 5498 5499 5504 5509 5502 5492 5483
5374 5376 5377 5378 5377 5375 5378 5378 5378 5375 5374 5376 5377 5373 5374 5383 5387 5397 5395 5397 5407 5411 5414 5404 5413 5427 5423 5422 5418 5420 5412 5412 5418 5426 5432 5431 5416 5397 5397 5405 5406 5411 5422 5439 5448 5459 5459 5473 5465 5467 5470 5470 5466 5460
5372 5375 5379 5381 5382 5381 5381 5383 5384 5383 5382 5383 5385 5378 5383 5392 5396 5398 5393 5398 5403 5405 5402 5403 5413 5421 5417 5422 5421 5411 5405 5415 5411 5424 5428 5425 5394 5382 5385 5393 5395 5403 5413 5422 5424 5428 5433 5442 5440 5441 5440 5439 5438 5437
5370 5375 5379 5382 5385 5387 5388 5388 5388 5390 5392 5396 5398 5394 5394 5391 5389 5392 5373 5390 5400 5400 5400 5406 5407 5409 5407 5416 5417 5412 5419 5416 5414 5418 5410 5384 5366 5362 5366 5374 5382 5389 5397 5402 5409 5415 5420 5421 5419 5419 5418 5415 5412 5410
5367 5372 5378 5383 5386 5390 5394 5396 5398 5400 5403 5403 5400 5392 5391 5371 5364 5380 5374 5390 5388 5384 5385 5398 5406 5394 5399 5407 5407 5415 5426 5427 5407 5390 5366 5351 5344 5350 5354 5359 5363 5370 5379 5384 5388 5395 5396 5394 5394 5397 5396 5392 5391 5389
5366 5369 5375 5381 5385 5389 5394 5398 5402 5404 5400 5382 5372 5346 5346 5334 5345 5349 5359 5363 5370 5373 5379 5386 5397 5403 5401 5409 5405 5420 5400 5393 5382 5367 5349 5344 5342 5341 5344 5347 5352 5356 5360 5366 5372 5373 5375 5378 5375 5375 5375 5374 5373 5370
5367 5368 5373 5378 5382 5388 5391 5396 5399 5399 5374 5354 5349 5327 5328 5328 5330 5339 5351 5361 5361 5368 5378 5393 5398 5401 5397 5393 5376 5379 5365 5346 5350 5339 5337 5331 5331 5332 5333 5336 5341 5344 5347 5352 5353 5353 5358 5358 5357 5355 5352 5351 5349 5347
5371 5372 5371 5373 5377 5382 5388 5391 5389 5379 5348 5333 5318 5313 5312 5314 5324 5332 5341 5352 5358 5364 5374 5384 5391 5379 5353 5347 5349 5344 5351 5334 5320 5317 5316 5319 5319 5320 5323 5328 5331 5332 5331 5330 5332 5333 5335 5335 5335 5332 5329 5326 5323 5320
5373 5365 5370 5374 5377 5381 5386 5379 5366 5343 5325 5314 5298 5292 5287 5297 5305 5321 5335 5341 5350 5364 5363 5370 5353 5344 5355 5345 5334 5324 5303 5306 5304 5302 5302 5302 5303 5305 5307 5309 5311 5314 5316 5313 5308 5310 5314 5313 5314 5315 5309 5302 5300 5296
5369 5370 5375 5377 5380 5379 5373 5362 5341 5323 5305 5297 5290 5298 5297 5297 5309 5319 5328 5338 5349 5355 5352 5334 5334 5319 5304 5309 5295 5300 5294 5289 5288 5287 5288 5290 5291 5292 5293 5293 5295 5296 5293 5292 5289 5292 5295 5296 5294 5291 5287 5282 5280 5278
5372 5375 5380 5382 5383 5374 5360 5343 5334 5302 5290 5290 5290 5296 5299 5301 5309 5314 5324 5332 5335 5337 5332 5314 5296 5289 5281 5286 5286 5289 5285 5284 5280 5277 5275 5274 5277 5279 5278 5278 5276 5273 5273 5271 5271 5269 5269 5270 5272 5271 5267 5265 5263 5255
5380 5382 5385 5387 5388 5373 5357 5337 5329 5315 5297 5285 5289 5295 5298 5299 5306 5313 5320 5327 5329 5324 5302 5285 5272 5272 5273 5272 5275 5279 5277 5275 5275 5271 5266 5263 5262 5263 5261 5261 5260 5258 5256 5254 5251 5252 5250 5249 5247 5245 5243 5241 5236 5226
5384 5384 5386 5389 5384 5375 5357 5340 5328 5317 5306 5307 5302 5305 5298 5305 5306 5308 5312 5316 5310 5288 5273 5267 5264 5267 5267 5269 5270 5271 5268 5269 5265 5264 5257 5252 5250 5251 5249 5246 5244 5242 5240 5236 5235 5232 5231 5228 5224 5221 5218 5212 5208 5203
5382 5387 5385 5383 5374 5367 5352 5342 5338 5327 5326 5319 5315 5317 5299 5283 5280 5294 5300 5292 5273 5262 5261 5258 5259 5259 5259 5257 5255 5255 5253 5252 5248 5244 5241 5238 5235 5233 5230 5228 5226 5222 5219 5216 5213 5209 5207 5203 5201 5198 5195 5189 5185 5180
5386 5386 5376 5373 5365 5352 5339 5345 5339 5342 5319 5314 5312 5308 5295 5283 5291 5293 5274 5270 5257 5253 5251 5250 5247 5247 5246 5243 5242 5238 5235 5232 5227 5223 5219 5216 5213 5212 5209 5207 5204 5201 5197 5192 5190 5187 5184 5181 5178 5175 5170 5165 5159 5152
5383 5366 5357 5353 5354 5332 5334 5331 5340 5330 5319 5312 5306 5294 5299 5281 5282 5263 5254 5250 5250 5246 5243 5239 5237 5234 5230 5226 5221 5216 5213 5210 5206 5201 5197 5193 5188 5184 5182 5179 5177 5175 5174 5170 5166 5162 5159 5154 5153 5149 5144 5138 5129 5126
5362 5341 5344 5334 5337 5333 5313 5301 5307 5312 5290 5290 5289 5292 5285 5285 5261 5248 5234 5238 5231 5224 5225 5227 5222 5216 5209 5203 5199 5195 5191 5188 5183 5177 5172 5170 5165 5162 5158 5155 5152 5151 5151 5147 5140 5138 5132 5132 5129 5125 5121 5117 5115 5107
5331 5322 5328 5321 5314 5322 5312 5298 5288 5285 5281 5279 5278 5272 5257 5240 5225 5229 5235 5219 5213 5214 5207 5205 5203 5199 5192 5186 5179 5172 5167 5164 5161 5156 5150 5150 5149 5145 5140 5136 5133 5133 5131 5128 5125 5119 5114 5111 5111 5109 5103 5103 5100 5095
5308 5303 5322 5318 5322 5320 5292 5286 5288 5271 5255 5255 5247 5235 5225 5202 5197 5222 5221 5214 5209 5203 5202 5196 5191 5182 5173 5164 5156 5150 5146 5144 5141 5135 5132 5131 5130 5129 5125 5118 5116 5117 5117 5115 5113 5110 5105 5097 5093 5091 5089 5085 5084 5084
5309 5308 5295 5279 5284 5287 5259 5248 5240 5237 5241 5261 5242 5211 5197 5194 5208 5208 5204 5199 5195 5191 5184 5175 5167 5159 5151 5144 5138 5133 5128 5125 5122 5120 5117 5115 5112 5110 5109 5108 5107 5106 5104 5102 5099 5095 5092 5089 5085 5081 5080 5080 5078 5076
5288 5288 5285 5256 5262 5263 5258 5240 5241 5247 5247 5237 5206 5201 5209 5211 5198 5194 5191 5184 5180 5173 5162 5151 5140 5134 5128 5123 5119 5116 5113 5110 5105 5098 5090 5086 5085 5094 5096 5096 5095 5094 5092 5090 5089 5087 5084 5081 5079 5077 5075 5072 5070 5068
5283 5282 5265 5244 5245 5244 5231 5231 5224 5215 5230 5222 5222 5212 5201 5190 5186 5183 5176 5168 5158 5146 5140 5134 5126 5119 5109 5106 5099 5101 5101 5099 5099 5098 5087 5080 5085 5088 5086 5085 5085 5084 5083 5080 5078 5077 5078 5076 5074 5071 5068 5064 5059 5058
5281 5268 5254 5243 5233 5225 5219 5208 5206 5208 5199 5192 5182 5177 5177 5171 5170 5164 5159 5151 5143 5134 5128 5118 5110 5101 5098 5090 5086 5084 5086 5090 5089 5089 5088 5085 5082 5079 5077 5077 5076 5075 5073 5071 5069 5067 5065 5063 5061 5059 5058 5056 5053 5049
5254 5240 5241 5230 5224 5218 5215 5207 5189 5183 5170 5171 5165 5148 5152 5145 5139 5141 5140 5132 5125 5116 5108 5100 5098 5097 5094 5091 5089 5087 5088 5085 5082 5081 5079 5076 5073 5072 5072 5071 5071 5069 5067 5066 5064 5063 5062 5058 5054 5051 5050 5048 5045 5043
5237 5227 5218 5214 5209 5208 5204 5201 5189 5185 5169 5161 5162 5150 5143 5139 5131 5129 5128 5123 5118 5115 5107 5103 5098 5094 5091 5088 5086 5083 5082 5080 5078 5076 5074 5072 5071 5069 5068 5067 5067 5066 5063 5061 5059 5058 5056 5055 5051 5048 5046 5043 5040 5037